Location: Northcutt
(34.7304°N, 84.4305°W)
Time: 19:25:19
(UTC+00:00)

Transit 2A Rocket - Pass Details

Date: 03 October 2022
Orbit: 589 x 911 km, 66.7° (Epoch: 03 December)

Event Time Altitude Azimuth Distance (km) Brightness Sun altitude
Rises 20:48:17 0° 327° (NNW) 3,069 8.2 28.7°
Reaches altitude 10° 20:50:34 10° 322° (NW) 2,197 7.6 28.3°
Maximum altitude 20:55:26 51° 247° (WSW) 952 7.0 27.4°
Drops below altitude 10° 21:00:44 10° 173° (S) 2,395 7.9 26.5°
Sets 21:03:20 0° 168° (SSE) 3,372 8.5 26.0°
